{"data":{"norad_id":56466,"intl_designator":"2023-064U","name":"STARLINK-6053","alt_names":[],"object_type":"PAYLOAD","status":"ACTIVE","operator":null,"country":"US","launch_date":"2023-05-10","launch_site_code":"AFWTR","launch_vehicle":null,"mission":null,"orbit_class":"UNKNOWN","rcs_meters":null,"size_class":null,"mass_kg":null,"dimensions":null,"purposes":["comms"],"wikipedia_slug":null,"has_3d_model":false,"image_url":null,"decayed_at":null,"tle_current":{"epoch":"2026-05-25T03:48:26.658432Z","epoch_age_seconds":64637,"freshness":"FRESH","line1":"1 56466U 23064U   26145.15864188  .00000744  00000+0  70125-4 0  9994","line2":"2 56466  69.9993 311.5156 0003042 272.3785  87.7026 14.98339961166690","mean_motion":14.98339961,"eccentricity":0.0003042,"inclination_deg":69.9993,"raan_deg":311.5156,"arg_perigee_deg":272.3785,"mean_anomaly_deg":87.7026,"bstar":7.0125e-5,"rev_number":16669,"period_min":96.106360204058,"perigee_km":569.91084823722,"apogee_km":574.13932685129,"semimajor_km":6950.1620875443,"source":"CELESTRAK","updated_at":"2026-05-25T13:38:18.069949Z"}}}